Overview Statistics Trail Chart Weather Telemetry Raw packets
 

This is the latest recevied weather packets stored in our database for station/object 9W2XPF-13. If no packets are shown the sender has not sent any weather packets the latest 10 day(s).

<< 104 105 106 107 108 109 110 >>
Time Temp. Humidity Pressure Rain* Wind** Luminosity Snow
1777293721 26.11° C 96% 1009.1 hPa 0 mm - - -
1777293601 26.11° C 96% 1008.7 hPa 0 mm - - -
1777293481 26.11° C 96% 1008.9 hPa 0 mm - - -
1777293361 26.11° C 96% 1008.9 hPa 0 mm - - -
1777293241 26.11° C 96% 1008.7 hPa 0 mm - - -
1777293121 26.11° C 96% 1008.9 hPa 0 mm - - -
1777293001 26.11° C 96% 1008.6 hPa 0 mm - - -
1777292881 26.11° C 96% 1008.5 hPa 0 mm - - -
1777292761 26.11° C 96% 1008.6 hPa 0 mm - - -
1777292641 26.11° C 96% 1008.6 hPa 0 mm - - -
1777292521 26.11° C 96% 1008.5 hPa 0.25 mm - - -
1777292401 26.11° C 96% 1008.2 hPa 0.51 mm - - -
1777292281 26.11° C 96% 1008.5 hPa 1.52 mm - - -
1777292161 26.11° C 96% 1008.4 hPa 1.78 mm - - -
1777292041 26.11° C 96% 1008.3 hPa 2.03 mm - - -
1777291921 26.11° C 96% 1008.4 hPa 2.29 mm - - -
1777291801 26.11° C 95% 1008.2 hPa 4.57 mm - - -
1777291681 26.11° C 95% 1008.2 hPa 4.83 mm - - -
1777291561 26.11° C 95% 1008.2 hPa 4.83 mm - - -
1777291441 26.11° C 95% 1008.1 hPa 4.83 mm - - -
1777291321 26.11° C 95% 1007.9 hPa 4.83 mm - - -
1777291201 26.11° C 95% 1008.1 hPa 4.83 mm - - -
1777291081 26.11° C 95% 1008.1 hPa 4.83 mm - - -
1777290961 26.11° C 95% 1008.1 hPa 4.83 mm - - -
1777290841 26.11° C 95% 1008 hPa 4.83 mm - - -

* Rain latest hour (hover to see other rain measurements)
** Current wind speed in m/s (hover to see current wind gust speed)